Location: Poughquag
(41.6090°N, 73.6820°W)
Time: 08:38:23
(UTC-05:00)

DIWATA 2B (PO-101) - Pass Details

Date: 21 November 2025
Orbit: 563 x 574 km, 98.1° (Epoch: 07 December)

Event Time Altitude Azimuth Distance (km) Brightness Sun altitude
Rises 05:23:53 0° 174° (S) 2,756 ? -16.2°
Reaches altitude 10° 05:26:02 10° 178° (S) 1,862 ? -15.8°
Maximum altitude 05:30:01 60° 258° (WSW) 654 ? -15.1°
Drops below altitude 10° 05:34:01 10° 340° (NNW) 1,871 ? -14.3°
Enters shadow 05:34:33 - 341° (NNW) 2,089 ? -14.2°
